• In Germany
  • List of Countries
  • For 7 days
  • Water Temperature
  • Satellite Maps
  • Weather Map
  • Weather Widgets
  • user-avatar
    Login

    Hourly Weather Baranovichi

    Today, 16 August, Wednesday

    Time Temperature Precipitation Wind Pressure Humidity
    00:00 +17°C° 0 mm 2 mps 751 mmHg 79%
    01:00 +17°C° 0 mm 2 mps 751 mmHg 81%
    02:00 +16°C° 0 mm 2 mps 751 mmHg 85%
    03:00 +16°C° 0 mm 2 mps 751 mmHg 86%
    04:00 +15°C° 0 mm 2 mps 751 mmHg 88%
    05:00 +15°C° 0 mm 2 mps 751 mmHg 89%
    06:00 +17°C° 0 mm 2 mps 751 mmHg 86%
    07:00 +18°C° 0 mm 2 mps 751 mmHg 83%
    08:00 +20°C° 0 mm 3 mps 750 mmHg 82%
    09:00 +22°C° 0.1 mm 3 mps 750 mmHg 76%
    10:00 +24°C° 0.1 mm 3 mps 750 mmHg 71%
    11:00 +26°C° 0.1 mm 3 mps 750 mmHg 65%
    12:00 +27°C° 0.2 mm 3 mps 750 mmHg 62%
    13:00 +27°C° 0.2 mm 2 mps 750 mmHg 59%
    14:00 +28°C° 0.2 mm 2 mps 750 mmHg 55%
    15:00 +28°C° 0.3 mm 2 mps 749 mmHg 56%
    16:00 +28°C° 0.3 mm 2 mps 749 mmHg 57%
    17:00 +28°C° 0.3 mm 2 mps 749 mmHg 57%
    18:00 +26°C° 0.1 mm 2 mps 749 mmHg 64%
    19:00 +24°C° 0.1 mm 1 mps 749 mmHg 70%
    20:00 +22°C° 0.1 mm 1 mps 749 mmHg 76%
    21:00 +21°C° 0.1 mm 1 mps 749 mmHg 78%
    22:00 +20°C° 0.1 mm 1 mps 749 mmHg 80%
    23:00 +20°C° 0.1 mm 1 mps 749 mmHg 81%

    Tomorrow, 17 August, Thursday

    Time Temperature Precipitation Wind Pressure Humidity
    00:00 +20°C° 0 mm 1 mps 749 mmHg 82%
    01:00 +19°C° 0 mm 1 mps 749 mmHg 83%
    02:00 +19°C° 0 mm 1 mps 749 mmHg 84%
    03:00 +19°C° 0 mm 1 mps 749 mmHg 86%
    04:00 +19°C° 0 mm 1 mps 749 mmHg 88%
    05:00 +18°C° 0 mm 1 mps 749 mmHg 90%
    06:00 +20°C° 0 mm 1 mps 749 mmHg 85%
    07:00 +22°C° 0 mm 1 mps 749 mmHg 80%
    08:00 +23°C° 0 mm 1 mps 749 mmHg 75%
    09:00 +25°C° 0.1 mm 1 mps 749 mmHg 70%
    10:00 +26°C° 0.1 mm 1 mps 749 mmHg 65%
    11:00 +28°C° 0.1 mm 1 mps 749 mmHg 60%
    12:00 +29°C° 0.4 mm 1 mps 749 mmHg 57%
    13:00 +29°C° 0.4 mm 2 mps 749 mmHg 54%
    14:00 +30°C° 0.4 mm 2 mps 749 mmHg 51%
    15:00 +30°C° 0.1 mm 2 mps 748 mmHg 53%
    16:00 +29°C° 0.1 mm 2 mps 748 mmHg 55%
    17:00 +29°C° 0.1 mm 1 mps 748 mmHg 57%
    18:00 +28°C° 0.1 mm 1 mps 748 mmHg 62%
    19:00 +26°C° 0.1 mm 1 mps 748 mmHg 66%
    20:00 +24°C° 0.1 mm 1 mps 748 mmHg 71%
    21:00 +23°C° 0.7 mm 1 mps 748 mmHg 74%
    22:00 +23°C° 0.7 mm 1 mps 748 mmHg 77%
    23:00 +22°C° 0.7 mm 1 mps 748 mmHg 81%

    Day after tomorrow, 18 August, Friday

    Time Temperature Precipitation Wind Pressure Humidity
    00:00 +22°C° 0.2 mm 1 mps 748 mmHg 82%
    01:00 +21°C° 0.2 mm 1 mps 748 mmHg 84%
    02:00 +21°C° 0.2 mm 1 mps 748 mmHg 85%
    03:00 +20°C° 0.1 mm 1 mps 748 mmHg 86%
    04:00 +20°C° 0.1 mm 1 mps 748 mmHg 87%
    05:00 +20°C° 0.1 mm 1 mps 748 mmHg 88%
    06:00 +21°C° 0.3 mm 1 mps 748 mmHg 85%
    07:00 +21°C° 0.3 mm 2 mps 749 mmHg 81%
    08:00 +24°C° 0.3 mm 2 mps 749 mmHg 78%
    09:00 +25°C° 0.2 mm 2 mps 749 mmHg 70%
    10:00 +27°C° 0.2 mm 3 mps 749 mmHg 63%
    11:00 +29°C° 0.2 mm 3 mps 749 mmHg 55%
    12:00 +30°C° 0.1 mm 3 mps 749 mmHg 52%
    13:00 +30°C° 0.1 mm 4 mps 749 mmHg 48%
    14:00 +32°C° 0.1 mm 4 mps 748 mmHg 45%
    15:00 +31°C° 0 mm 3 mps 748 mmHg 48%
    16:00 +30°C° 0 mm 3 mps 748 mmHg 50%
    17:00 +30°C° 0 mm 2 mps 748 mmHg 53%
    18:00 +28°C° 0 mm 2 mps 748 mmHg 56%
    19:00 +26°C° 0 mm 2 mps 748 mmHg 59%
    20:00 +25°C° 0 mm 2 mps 748 mmHg 62%
    21:00 +24°C° 0 mm 2 mps 748 mmHg 63%
    22:00 +23°C° 0 mm 2 mps 748 mmHg 64%
    23:00 +21°C° 0 mm 2 mps 748 mmHg 64%

    19 August, Saturday

    Time Temperature Precipitation Wind Pressure Humidity
    00:00 +21°C° 0 mm 3 mps 748 mmHg 64%
    01:00 +21°C° 0 mm 3 mps 748 mmHg 64%
    02:00 +20°C° 0 mm 3 mps 748 mmHg 64%
    03:00 +20°C° 0 mm 3 mps 748 mmHg 65%
    04:00 +19°C° 0 mm 3 mps 748 mmHg 65%
    05:00 +19°C° 0 mm 3 mps 748 mmHg 66%
    06:00 +20°C° 0 mm 3 mps 748 mmHg 65%
    07:00 +21°C° 0 mm 3 mps 748 mmHg 63%
    08:00 +23°C° 0 mm 4 mps 748 mmHg 62%
    09:00 +26°C° 0 mm 4 mps 748 mmHg 56%
    10:00 +28°C° 0 mm 4 mps 748 mmHg 50%
    11:00 +30°C° 0 mm 5 mps 748 mmHg 44%
    12:00 +30°C° 0 mm 5 mps 748 mmHg 42%
    13:00 +32°C° 0 mm 5 mps 748 mmHg 39%
    14:00 +33°C° 0 mm 4 mps 747 mmHg 37%
    15:00 +32°C° 0 mm 4 mps 747 mmHg 39%
    16:00 +31°C° 0 mm 3 mps 747 mmHg 41%
    17:00 +31°C° 0 mm 3 mps 746 mmHg 44%
    18:00 +29°C° 0 mm 3 mps 746 mmHg 46%
    19:00 +27°C° 0 mm 3 mps 746 mmHg 48%
    20:00 +25°C° 0 mm 3 mps 746 mmHg 51%
    21:00 +25°C° 0 mm 3 mps 746 mmHg 49%
    22:00 +25°C° 0 mm 4 mps 746 mmHg 46%
    23:00 +23°C° 0 mm 4 mps 746 mmHg 44%

    20 August, Sunday

    Time Temperature Precipitation Wind Pressure Humidity
    00:00 +23°C° 0 mm 4 mps 746 mmHg 46%
    01:00 +22°C° 0 mm 4 mps 746 mmHg 48%
    02:00 +21°C° 0 mm 3 mps 746 mmHg 50%
    03:00 +20°C° 0 mm 3 mps 746 mmHg 53%
    04:00 +19°C° 0 mm 3 mps 746 mmHg 56%
    05:00 +18°C° 0 mm 3 mps 746 mmHg 59%
    06:00 +20°C° 0 mm 3 mps 746 mmHg 60%
    07:00 +21°C° 0 mm 3 mps 746 mmHg 60%
    08:00 +22°C° 0 mm 3 mps 746 mmHg 61%
    09:00 +25°C° 0 mm 2 mps 747 mmHg 56%
    10:00 +26°C° 0 mm 2 mps 747 mmHg 52%
    11:00 +28°C° 0 mm 2 mps 747 mmHg 48%
    12:00 +29°C° 0 mm 3 mps 747 mmHg 46%
    13:00 +30°C° 0 mm 3 mps 747 mmHg 44%
    14:00 +31°C° 0 mm 3 mps 747 mmHg 41%
    15:00 +29°C° 0.1 mm 4 mps 747 mmHg 49%
    16:00 +28°C° 0.1 mm 4 mps 747 mmHg 56%
    17:00 +26°C° 0.1 mm 5 mps 747 mmHg 64%
    18:00 +23°C° 0 mm 4 mps 747 mmHg 71%
    19:00 +21°C° 0 mm 4 mps 748 mmHg 79%
    20:00 +18°C° 0 mm 4 mps 748 mmHg 86%
    21:00 +18°C° 0.1 mm 4 mps 748 mmHg 88%
    22:00 +17°C° 0.1 mm 4 mps 748 mmHg 89%
    23:00 +15°C° 0.1 mm 4 mps 749 mmHg 91%

    21 August, Monday

    Time Temperature Precipitation Wind Pressure Humidity
    00:00 +15°C° 0 mm 4 mps 749 mmHg 91%
    01:00 +16°C° 0 mm 3 mps 749 mmHg 91%
    02:00 +16°C° 0 mm 3 mps 749 mmHg 91%
    03:00 +14°C° 0 mm 3 mps 749 mmHg 91%
    04:00 +14°C° 0 mm 3 mps 749 mmHg 91%
    05:00 +14°C° 0 mm 3 mps 749 mmHg 90%
    06:00 +16°C° 0.1 mm 3 mps 749 mmHg 89%
    07:00 +16°C° 0.1 mm 3 mps 749 mmHg 88%
    08:00 +17°C° 0.1 mm 3 mps 749 mmHg 86%
    09:00 +18°C° 0 mm 3 mps 750 mmHg 82%
    10:00 +20°C° 0 mm 3 mps 750 mmHg 77%
    11:00 +21°C° 0 mm 3 mps 750 mmHg 73%
    12:00 +23°C° 0 mm 2 mps 749 mmHg 70%
    13:00 +24°C° 0 mm 2 mps 749 mmHg 67%
    14:00 +25°C° 0 mm 2 mps 749 mmHg 64%
    15:00 +25°C° 0 mm 2 mps 749 mmHg 65%
    16:00 +25°C° 0 mm 2 mps 748 mmHg 66%
    17:00 +25°C° 0 mm 2 mps 748 mmHg 67%
    18:00 +23°C° 0.1 mm 2 mps 748 mmHg 74%
    19:00 +20°C° 0.1 mm 2 mps 748 mmHg 82%
    20:00 +18°C° 0.1 mm 2 mps 748 mmHg 89%
    21:00 +18°C° 0.3 mm 2 mps 748 mmHg 91%
    22:00 +17°C° 0.3 mm 2 mps 747 mmHg 93%
    23:00 +16°C° 0.3 mm 2 mps 747 mmHg 95%
    Show more